Regional Weather Roundup
Issued by NWS Sterling, VA

Home | Current Version | Previous Version | Graphics & Text | Print | Product List | Glossary On
Versions: 1 2 3 4 5 6 7 8 9 10 11 12 13 14 15 16 17 18 19 20 21 22 23 24 25 26 27 28 29 30 31 32 33 34 35 36 37 38 39 40 41 42 43 44 45 46 47 48 49 50
000
ASUS41 KLWX 261910
RWRLWX

REGIONAL WEATHER ROUNDUP
NATIONAL WEATHER SERVICE BALTIMORE MD/WASHINGTON DC
300 PM EDT SUN APR 26 2015

Note: "FAIR" indicates few or no clouds below 12,000 feet
with no significant weather and/or obstructions to visibility.
 TC=TEMPERATURE CELSIUS

 * =Non NWS site. Station does not report precipitation (e.g. rain,
    snow, etc.), thunder, or fog.

DCZ001-MDZ009-015-VAZ040>042-051-053>054-262000-
WASHINGTON METRO

CITY           SKY/WX    TMP DP  RH WIND       PRES   REMARKS
WASHINGTON NAT PTSUNNY   65  33  30 CALM      29.70S
DULLES         PTSUNNY   61  35  37 NW9       29.71S
ANDREWS AFB    SUNNY     60  33  35 N9        29.68S
FT BELVOIR     SUNNY     63  32  31 NW6       29.70S
QUANTICO       MOSUNNY   62  36  37 E8        29.71F
COLLEGE PARK*  MOSUNNY   63  32  31 N8        29.69S
LEESBURG*      MOSUNNY   61  34  36 N10       29.71S
MANASSAS*      PTSUNNY   63  34  34 N7        29.71S
GAITHERSBURG*  PTSUNNY   61  30  31 NE3       29.73S

$$

MDZ006>007-011-014-262000-
BALTIMORE METRO

CITY           SKY/WX    TMP DP  RH WIND       PRES   REMARKS
BWI AIRPORT    PTSUNNY   62  30  29 N7G22     29.68S
MD SCIENCE CTR   N/A     63  27  25 MISG      29.69S
MARTIN STATE   MOSUNNY   63  39  42 SE12      29.70F
ANNAPOLIS      MOSUNNY   58  38  47 SE12      29.68F
FORT MEADE*    SUNNY     61  30  31 N6        29.71S

$$

MDZ012-015-019>023-262000-
MARYLAND EASTERN SHORE

CITY           SKY/WX    TMP DP  RH WIND       PRES   REMARKS
OCEAN CITY     SUNNY     56  41  57 E8        29.69F
SALISBURY      CLOUDY    59  36  42 N6        29.67F
BAY BRIDGE AP*   N/A    N/A N/A N/A NW5       29.69F
CAMBRIDGE*     MOSUNNY   61  37  41 NW3       29.68S
EASTON*        MOSUNNY   63  36  36 NE8       29.72S

$$

MDZ017>025-262000-
SOUTHERN MARYLAND

CITY           SKY/WX    TMP DP  RH WIND       PRES   REMARKS
PATUXENT RIVER PTSUNNY   58  36  43 NE9       29.70S
ST INIGOES     MOSUNNY   58  41  53 SW9       29.69F
LEONARDTOWN*   SUNNY     59  32  36 N5        29.71F

$$

MDZ003>005-262000-
NORTH CENTRAL MARYLAND

CITY           SKY/WX    TMP DP  RH WIND       PRES   REMARKS
FREDERICK*     MOSUNNY   63  25  23 VRB6      29.72F
HAGERSTOWN APT SUNNY     59  26  28 NW7       29.70F
WESTMINSTER*   SUNNY     57  30  35 N15       29.70S

$$

MDZ501>502-262000-
WESTERN MARYLAND

CITY           SKY/WX    TMP DP  RH WIND       PRES   REMARKS
OAKLAND*       SUNNY     52  28  40 N8        29.71S
CUMBERLAND*    SUNNY     63  32  31 SE9       29.73F

$$

VAZ025>031-262000-
SHENANDOAH VALLEY

CITY           SKY/WX    TMP DP  RH WIND       PRES   REMARKS
WINCHESTER*    SUNNY     59  23  25 NW6       29.71F
FRONT ROYAL*   FAIR      59  34  38 NW6       29.71S
LURAY*         FAIR      61  36  39 N3        29.72S
NEW MARKET*    FAIR      56  34  43 NW3       29.71F
STAUNTON*      MOSUNNY   56  36  48 NE5       29.74F
WAYNESBORO*    FAIR      51  35  53 NW3       29.73F

$$

WVZ021-048>050-054>055-262000-
EASTERN WEST VIRGINIA PANHANDLE

CITY           SKY/WX    TMP DP  RH WIND       PRES   REMARKS
MARTINSBURG    SUNNY     62  30  29 VRB7      29.70F
PETERSBURG*    SUNNY     58  33  38 SE3       29.73F

$$

VAZ036>039-050-262000-
CENTRAL FOOTHILLS

CITY           SKY/WX    TMP DP  RH WIND       PRES   REMARKS
CHARLOTTESVILL MOSUNNY   58  33  39 CALM      29.71F
CULPEPER*      SUNNY     63  34  34 NE9       29.72S
ORANGE*        PTSUNNY   61  37  41 N10       29.73S
GORDONSVILLE*  MOCLDY    60  38  44 NE7       29.71F
WARRENTON*     FAIR      62  36  37 N9        29.71S

$$

VAZ055>057-262000-
NORTH AND CENTRAL PIEDMONT

CITY           SKY/WX    TMP DP  RH WIND       PRES   REMARKS
FREDERICKSBRG* SUNNY     63  36  36 W6        29.70S
STAFFORD*      MOSUNNY   61  34  37 N6        29.74F

$$

NCZ024-NYZ072-PAZ021-071-VAZ022-071-262000-
OTHER REGIONAL OBSERVATIONS

CITY           SKY/WX    TMP DP  RH WIND       PRES   REMARKS
NEW YORK CITY  CLOUDY    61  26  26 N7        29.69S
PHILADELPHIA   MOSUNNY   60  30  32 VRB5      29.68F
PITTSBURGH     MOSUNNY   57  27  31 N13G18    29.77S
ROANOKE        CLOUDY    50  42  74 NE10      29.77S
RICHMOND       PTSUNNY   59  40  49 NE14      29.71F
RALEIGH        CLOUDY    51  46  83 N6        29.73R

$$

ANZ530>537-262000-
MARINE OBSERVATIONS

STATION/POSITION TIME  TEMP    WIND        PRES
                       AIR SEA DIR/SP/G
                 (UTC) (F)     (DEG/KT/KT) (MB)
THOMAS PT LIGHT  1900   56 54   60/  7/  7 1006.1F
BALT KEY BRIDGE  1800   54     120/  8/ 11 1005.3F
COVE POINT       1800   51      20/  7/  9 1006.5F
LEWISETTA        1800   55 57              1005.5F
SOLOMONS ISLAND  1800      56                N/A
PINEY POINT      1800          290/  5/  6   N/A

$$



USA.gov is the U.S. government's official web portal to all federal, state and local government web resources and services.